Location: �quirre
(50.4736°N, 2.2351°E)
Time: 05:37:31
(UTC+00:00)

COSMOS 2428 - Pass Details

Date: 07 August 2020
Orbit: 844 x 859 km, 70.9° (Epoch: 18 September)

Event Time Altitude Azimuth Distance (km) Brightness Sun altitude
Rises 00:19:32 0° 329° (NNW) 3,434 6.7 -23.0°
Reaches altitude 10° 00:22:00 10° 328° (NNW) 2,496 5.8 -23.0°
Maximum altitude 00:27:43 76° 244° (WSW) 887 2.6 -22.8°
Enters shadow 00:29:11 51° 173° (S) 1,070 2.8 -22.8°
